Home > Weather > Regina > Past weeks

Flag for Canada Weather for the Past 2 Weeks in Regina, Saskatchewan, Canada

Now
36 °F

Passing clouds.


Feels Like: 23 °F
Forecast: 20 / 29 °F
Wind: 25 mph from Northwest

Location: Regina Weather Station

Current Time: Feb 6, 2016 at 6:40:17 PM

Latest Report: Feb 6, 2016 at 6:00 PM


Visibility: 15 mi

Pressure: 29.66 "Hg (27.61 "Hg at 577m altitude)

Humidity: 75%

Dew point: 28 °F

Location of ReginaLocation

Historic Weather in Regina — Graph

°F

Regina Temperature Yesterday

Maximum temperature yesterday: 37 °F (at 3:00 PM)
Minimum temperature yesterday: 5 °F (at 8:00 AM)
Average temperature yesterday: 19 °F

High & Low Weather Summary for the Past Weeks

 TemperatureHumidityPressure
High45 °F (Feb 6, 12:00 PM)100% (Jan 24, 7:00 AM)30.26 "Hg (Jan 24, 7:00 AM)
Low5 °F (Feb 2, 8:00 AM)57% (Feb 6, 12:00 PM)29.36 "Hg (Jan 29, 1:00 AM)
Average23 °F87%29.91 "Hg
* Reported Jan 22 5:00 PM — Feb 6 5:00 PM, Regina, Weather by CustomWeather, © 2016

Note: Actual official high and low records may vary slightly from our data, if they occured in-between our weather recording intervals... More about our weather records

Advertising

Regina Weather History for the Previous 24 Hours

 ConditionsComfort  
Time TempWeatherWind HumidityBarometerVisibility
5:00 PM
Sat, Feb 6
36 °FSprinkles. Partly sunny.24 mph93%29.63 "Hg15 mi
4:00 PM37 °FSprinkles. Overcast.29 mph81%29.58 "Hg15 mi
3:00 PM39 °FSprinkles. Partly sunny.30 mph81%29.55 "Hg15 mi
2:00 PM43 °FPassing clouds.26 mph71%29.51 "Hg15 mi
1:00 PM43 °FScattered clouds.24 mph61%29.55 "Hg15 mi
12:00 PM45 °FScattered clouds.16 mph57%29.56 "Hg15 mi
11:00 AM41 °FPartly sunny.13 mph61%29.59 "Hg15 mi
10:00 AM39 °FPartly sunny.16 mph65%29.60 "Hg15 mi
9:00 AM36 °FPartly sunny.12 mph75%29.63 "Hg15 mi
8:45 AM36 °FBroken clouds.7 mph75%29.63 "Hg15 mi
8:00 AM37 °FPassing clouds.15 mph70%29.66 "Hg15 mi
7:00 AM36 °FPassing clouds.15 mph75%29.68 "Hg15 mi
6:00 AM36 °FOvercast.18 mph75%29.68 "Hg15 mi
5:00 AM32 °FMostly cloudy.3 mph80%29.71 "Hg15 mi
4:00 AM27 °FOvercast.12 mph86%29.74 "Hg15 mi
3:00 AM23 °FOvercast.9 mph93%29.77 "Hg15 mi
2:00 AM21 °FMostly cloudy.8 mph93%29.80 "Hg15 mi
1:00 AM21 °FOvercast.9 mph93%29.83 "Hg15 mi
12:00 AM21 °FPartly cloudy.9 mph93%29.87 "Hg15 mi
11:00 PM
Fri, Feb 5
23 °FPassing clouds.9 mph86%29.90 "Hg15 mi
10:00 PM23 °FPassing clouds.9 mph86%29.95 "Hg15 mi
9:00 PM23 °FPassing clouds.9 mph86%29.99 "Hg15 mi
8:00 PM25 °FPassing clouds.12 mph80%30.02 "Hg15 mi
7:00 PM27 °FPassing clouds.9 mph80%30.03 "Hg15 mi
6:00 PM30 °FPassing clouds.9 mph80%30.03 "Hg15 mi
Weather by CustomWeather, © 2016

See weather overviewHow to use our weather pages